This demonstration page uses our WeatherBlox Daily Observations layout. Learn more.

Left ArrowRight Arrow

Hourly Observations for May 5, 2016

Temp ( °F °C ) Dew Point ( °F °C ) Humidity (%) Winds ( mph kmh ) Pressure ( in mb ) Visibility ( mi km ) Precip ( " mm )
12:52 am 00:52 Clear 49 9.4 38 3.3 66 66 NW 5 7 29.98 1015 10 16 0.00 0.00
1:52 am 01:52 Clear 47 8.3 38 3.3 71 71 Calm 29.97 1015 10 16 0.00 0.00
2:52 am 02:52 Clear 47 8.3 38 3.3 71 71 Calm 29.96 1015 10 16 0.00 0.00
3:52 am 03:52 Clear 44 6.7 37 2.8 76 76 Calm 29.96 1015 10 16 0.00 0.00
4:52 am 04:52 Clear 44 6.7 37 2.8 76 76 Calm 29.97 1015 10 16 0.00 0.00
5:52 am 05:52 Clear 44 6.7 36 2.2 73 73 W 3 6 29.98 1015 10 16 0.00 0.00
6:52 am 06:52 Sunny 48 8.9 37 2.8 66 66 WNW 3 6 30.00 1016 10 16 0.00 0.00
7:52 am 07:52 Sunny 54 12.2 40 4.4 59 59 WNW 6 9 30.02 1017 10 16 0.00 0.00
8:52 am 08:52 Sunny 58 14.4 42 5.6 56 56 NNW 10 17 30.04 1017 10 16 0.00 0.00
9:52 am 09:52 Sunny 63 17.2 42 5.6 47 47 NNW 9 15 30.05 1018 10 16 0.00 0.00
10:52 am 10:52 Sunny 66 18.9 40 4.4 39 39 NNW 16 26 30.04 1017 10 16 0.00 0.00
11:52 am 11:52 Sunny 68 20 39 3.9 35 35 NNW 15 24 30.05 1018 10 16 0.00 0.00
12:52 pm 12:52 Sunny 70 21.1 36 2.2 29 29 N 21 33 30.04 1017 10 16 0.00 0.00
1:52 pm 13:52 Sunny 71 21.7 34 1.1 26 26 N 16 26 30.04 1017 10 16 0.00 0.00
2:52 pm 14:52 Sunny 71 21.7 29 -1.7 21 21 N 16 26 30.03 1017 10 16 0.00 0.00
3:52 pm 15:52 Sunny 71 21.7 31 -0.6 23 23 NNW 16 26 30.02 1017 10 16 0.00 0.00
4:52 pm 16:52 Sunny 71 21.7 32 0 24 24 N 12 19 30.01 1016 10 16 0.00 0.00
5:52 pm 17:52 Sunny 70 21.1 31 -0.6 23 23 N 14 22 30.01 1016 10 16 0.00 0.00
6:52 pm 18:52 Sunny 68 20 31 -0.6 25 25 N 10 17 29.99 1016 10 16 0.00 0.00
7:52 pm 19:52 Sunny 62 16.7 35 1.7 37 37 N 6 9 30.00 1016 10 16 0.00 0.00
8:52 pm 20:52 Clear 61 16.1 33 0.6 35 35 NNW 3 6 30.01 1016 10 16 0.00 0.00
9:52 pm 21:52 Clear 52 11.1 39 3.9 61 61 Calm 30.02 1017 10 16 0.00 0.00
10:52 pm 22:52 Clear 51 10.6 38 3.3 61 61 Calm 30.04 1017 10 16 0.00 0.00
11:52 pm 23:52 Clear 50 10 38 3.3 63 63 Calm 30.05 1018 10 16 0.00 0.00

Powered by AerisWeather